Wind_Speed
12 12 12 12 13 13 14 13 13 13 14 14 14 14 13 13 12 11 10 9 9 8 8 8 8 8 8 8 8 7 7 7 8 9 9 9 10 10 10 11 11 11 11
15 14 13 14 15 14 13 13 14 14 14 14 14 14 14 13 12 10 9 8 8 7 7 7 7 7 8 8 7 8 9 9 9 9 9 9 10 10 11 12 12 12 12
15 15 15 15 15 15 14 14 14 14 15 15 14 14 14 13 12 11 9 7 7 7 7 7 7 8 8 8 8 8 9 9 9 8 8 8 9 10 10 12 12 12 12
15 15 15 15 15 15 15 15 15 14 14 15 14 14 14 13 12 11 9 7 7 7 8 8 8 7 8 7 8 8 8 8 8 9 9 9 10 10 11 11 11 11 12
15 15 16 16 16 17 16 16 15 15 15 15 14 14 14 13 12 10 8 8 7 8 8 8 8 8 8 8 8 7 7 7 8 8 9 10 11 11 11 11 12 12 12
16 15 16 16 17 17 16 16 15 15 15 14 14 14 14 13 12 10 9 8 8 8 8 8 8 8 8 8 8 8 8 8 8 7 8 10 10 11 11 11 11 11 12
17 17 18 16 17 17 17 17 16 16 16 15 15 14 14 13 12 10 10 9 9 9 9 9 8 8 8 8 8 8 8 9 9 8 8 8 9 10 10 10 10 11 11
18 18 18 17 17 17 18 17 16 16 16 16 16 15 14 13 12 10 10 10 10 10 10 9 9 8 8 8 8 9 8 9 9 9 9 8 9 9 10 10 10 10 11
18 18 19 18 17 18 18 17 17 17 16 16 16 16 14 13 12 11 11 11 11 11 11 9 9 9 9 9 9 9 9 9 9 9 10 10 9 9 9 10 10 10 9
17 17 18 18 18 18 18 17 17 17 16 16 17 16 15 13 12 12 12 11 11 12 12 10 10 9 9 10 9 9 9 10 10 10 9 9 9 9 9 9 10 10 10
16 17 18 17 18 18 18 18 18 17 17 16 17 16 16 15 14 13 13 12 12 11 11 11 9 9 10 10 10 10 11 11 10 11 11 11 10 10 10 11 11 11 11
18 19 18 17 17 18 18 18 18 17 17 17 17 17 17 15 14 13 13 13 12 11 11 11 10 11 11 11 11 11 12 12 12 12 12 12 12 12 12 12 12 13 12
18 18 17 16 17 17 18 18 18 17 18 18 17 16 14 14 14 13 13 13 13 12 12 11 11 11 11 12 12 12 13 13 13 13 12 12 13 13 13 14 13 13 13
18 17 17 17 18 18 17 17 17 17 18 17 16 16 16 15 14 14 14 13 13 13 12 12 12 12 12 12 13 13 13 12 12 12 12 13 13 14 14 14 14 14 14
18 17 16 17 17 16 16 17 17 17 18 17 16 16 16 15 15 14 14 14 14 14 13 13 13 13 13 13 14 14 13 12 12 13 13 13 13 13 13 13 14 14 14
21 18 16 16 15 16 16 16 16 17 17 16 16 16 16 15 14 14 13 13 14 14 13 13 14 14 14 14 13 12 13 13 13 13 13 13 13 13 13 13 14 14 15
22 19 18 16 16 15 15 15 16 16 16 16 16 15 15 14 14 13 13 14 14 14 14 14 15 14 14 14 13 12 13 13 13 14 14 14 14 14 14 14 14 14 15
21 20 18 18 18 16 15 15 16 16 16 16 15 14 13 13 13 13 14 15 14 14 15 15 15 15 14 14 14 14 13 14 14 14 14 14 14 15 15 15 15 15 16
21 19 18 18 18 17 17 17 16 16 16 16 15 15 14 14 14 14 15 14 15 15 15 15 15 15 15 14 14 14 14 14 15 14 14 15 15 15 15 16 16 16 17
22 20 18 17 16 17 18 17 17 16 16 16 16 15 15 15 15 15 15 15 16 17 16 16 16 17 16 15 15 16 15 15 15 15 15 16 17 17 17 17 17 17 17
24 22 21 19 19 18 18 17 17 17 17 17 17 17 17 16 16 16 15 16 16 17 18 18 18 18 18 18 18 17 17 16 16 15 16 17 17 18 18 18 18 18 18
25 23 21 20 19 19 19 18 18 18 18 18 18 18 17 17 17 17 17 17 18 18 18 18 18 18 19 19 19 19 18 17 16 16 17 18 18 19 19 19 19 20 20
24 23 21 20 20 19 19 19 20 19 19 19 18 18 18 18 19 19 19 19 19 19 18 18 19 19 19 19 20 19 19 18 18 18 19 19 19 19 20 20 20 20 20
23 23 22 21 21 21 20 20 20 20 20 20 20 19 18 18 18 19 20 20 20 20 20 20 20 20 20 20 20 20 20 20 21 21 21 20 20 20 20 20 20 20 21
23 23 23 22 22 21 21 21 21 21 21 21 21 21 20 19 19 19 20 20 20 21 22 22 22 22 21 20 20 20 20 20 21 21 22 22 22 22 22 22 21 21 21
23 23 23 22 22 21 21 21 21 22 21 21 22 21 20 20 20 21 21 20 20 21 22 23 22 22 21 20 20 20 21 21 21 21 21 21 21 22 22 22 22 22 22
Wind_Direction
292 291 293 303 302 301 305 308 310 311 315 318 319 321 325 327 323 320 320 318 313 306 303 298 291 289 283 271 264 267 263 259 255 257 262 262 264 262 262 262 262 259 259
289 288 289 294 296 295 298 302 305 307 311 313 314 317 320 323 322 322 318 314 307 303 302 301 300 291 285 274 272 271 265 260 258 258 257 262 264 265 266 266 265 263 263
290 288 287 289 289 290 292 295 298 301 305 308 308 312 316 317 317 319 315 314 306 303 301 303 301 294 288 280 273 269 267 266 259 254 255 262 263 261 264 267 268 267 266
287 288 286 285 287 288 290 294 297 298 300 301 303 308 311 312 315 314 312 311 305 300 301 302 298 289 289 286 274 268 267 264 262 258 259 263 267 262 266 265 266 269 266
279 282 282 286 286 287 288 295 296 299 298 297 300 303 304 305 308 306 303 304 306 302 299 302 298 292 286 282 280 273 269 266 267 266 265 269 270 269 269 267 266 266 267
271 275 279 284 285 286 288 292 294 296 297 295 296 300 300 300 301 297 296 295 299 302 301 300 301 299 290 281 276 274 268 266 269 274 277 276 274 270 270 269 268 268 268
271 273 276 280 284 286 288 288 289 291 293 295 294 297 297 296 297 289 294 295 295 296 300 302 301 296 289 285 277 275 268 268 269 274 281 281 275 272 272 268 268 271 272
266 272 277 281 283 287 290 288 288 290 291 292 293 293 294 294 291 286 291 292 293 292 293 297 296 294 291 288 284 276 274 272 273 272 274 279 282 277 273 270 268 270 273
265 269 274 279 283 284 284 285 288 289 290 291 292 291 289 290 287 286 287 288 289 289 288 285 288 289 288 287 285 283 279 275 274 272 275 279 283 284 280 277 274 275 277
266 269 271 277 281 281 281 282 285 288 290 291 291 290 289 287 283 282 283 282 285 285 282 278 283 286 287 284 282 284 284 279 276 276 281 283 287 286 282 278 276 277 279
267 273 272 277 279 278 277 280 284 286 288 289 290 288 286 283 281 275 276 278 280 281 280 277 283 285 286 283 281 280 280 279 278 276 277 278 281 283 280 277 276 278 276
270 272 272 276 276 276 277 279 282 283 284 287 288 284 282 277 276 274 271 274 277 277 276 276 279 280 283 281 278 278 278 278 277 278 278 276 277 279 277 277 278 278 276
268 269 270 274 275 277 278 280 282 284 285 284 284 284 280 277 275 275 268 268 273 276 275 278 278 280 281 281 278 277 277 279 276 275 277 274 275 276 277 276 277 276 276
270 269 272 274 273 274 277 281 283 283 286 287 285 283 282 280 274 275 270 266 271 275 276 276 279 280 280 279 280 277 278 277 271 270 277 276 276 276 277 274 273 274 275
270 275 275 273 274 271 274 278 281 282 284 286 285 284 282 280 276 274 271 266 270 273 275 275 277 279 278 277 277 277 276 275 271 272 276 277 278 278 277 275 273 273 275
269 272 272 270 271 271 274 277 280 283 284 284 283 284 282 280 274 273 272 266 268 270 273 275 277 280 281 282 279 275 278 274 270 271 273 276 277 276 276 274 272 274 277
269 269 271 270 266 267 272 277 279 282 285 285 284 284 282 280 272 267 268 270 270 271 272 274 277 279 279 278 276 276 274 272 272 274 276 278 280 276 274 274 275 277 278
269 268 266 268 266 265 272 277 278 279 282 283 284 283 281 279 273 271 271 271 272 274 275 276 278 276 275 275 278 276 277 277 277 278 281 279 277 277 278 277 277 277 279
265 264 263 266 264 264 271 276 276 277 279 277 278 279 277 275 272 270 271 270 273 276 278 277 278 277 276 275 275 276 276 278 277 278 279 279 277 277 278 278 278 278 280
261 262 261 262 266 270 274 274 275 276 278 277 275 276 275 273 271 272 271 273 275 277 279 278 276 277 278 279 279 279 281 280 277 277 278 278 277 277 276 277 279 280 280
258 261 261 261 266 271 272 273 273 275 274 274 274 275 273 270 269 270 271 274 277 279 280 280 278 277 279 280 282 282 283 280 277 277 277 278 278 277 276 276 278 280 281
256 261 263 262 266 269 270 270 270 271 271 271 273 273 271 269 268 268 271 272 274 279 280 280 279 278 278 279 280 282 282 278 275 275 277 277 277 275 276 278 280 280 280
257 260 266 268 268 268 268 270 270 269 269 270 270 271 270 268 267 268 271 273 275 277 279 280 280 278 277 277 280 281 281 279 276 277 278 278 277 278 278 280 281 282 280
257 259 263 267 267 267 267 268 267 267 268 268 268 267 268 268 269 269 271 273 274 275 277 279 280 280 277 277 277 277 278 279 280 281 282 280 278 277 278 280 281 282 282
257 259 260 263 265 267 265 265 264 264 265 267 267 268 266 265 268 271 272 272 273 275 278 280 281 280 276 276 277 277 278 278 280 280 279 279 278 278 278 279 280 282 283
256 258 259 259 261 263 265 265 266 264 263 265 266 266 265 266 267 268 270 272 274 277 280 280 279 279 277 276 276 278 280 277 279 280 280 280 278 278 279 279 279 280 281
Height
5883 5883 5883 5882 5881 5881 5880 5879 5878 5877 5875 5873 5871 5870 5868 5866 5864 5862 5861 5859 5858 5857 5857 5856 5855 5855 5854 5854 5853 5854 5854 5854 5854 5855 5854 5855 5855 5855 5855 5855 5855 5855 5855
5879 5880 5880 5879 5879 5878 5878 5876 5875 5874 5872 5871 5869 5867 5865 5863 5862 5860 5859 5857 5856 5855 5854 5854 5853 5853 5852 5851 5851 5851 5851 5852 5852 5852 5852 5852 5853 5852 5852 5851 5851 5851 5851
5876 5876 5876 5876 5876 5876 5875 5873 5872 5870 5869 5868 5866 5865 5863 5861 5860 5858 5856 5855 5854 5853 5853 5852 5851 5850 5849 5849 5849 5849 5849 5849 5849 5849 5850 5850 5850 5849 5849 5848 5848 5847 5847
5873 5873 5873 5873 5873 5873 5872 5870 5869 5867 5865 5864 5863 5862 5861 5859 5857 5856 5854 5853 5852 5851 5850 5850 5849 5848 5847 5846 5846 5846 5846 5846 5846 5846 5846 5847 5846 5846 5845 5845 5844 5843 5843
5870 5870 5870 5870 5870 5869 5868 5867 5865 5864 5863 5861 5860 5859 5858 5857 5855 5853 5852 5851 5850 5849 5848 5847 5846 5846 5845 5844 5844 5844 5844 5844 5844 5844 5843 5843 5843 5842 5841 5841 5841 5840 5840
5865 5866 5866 5866 5866 5865 5864 5863 5862 5861 5860 5858 5857 5856 5855 5853 5852 5851 5850 5849 5848 5847 5846 5845 5844 5843 5843 5842 5842 5842 5841 5841 5841 5841 5840 5840 5839 5838 5838 5837 5837 5837 5836
5860 5861 5861 5861 5861 5861 5860 5859 5858 5857 5856 5855 5854 5853 5851 5850 5849 5848 5847 5846 5845 5844 5843 5842 5841 5841 5840 5840 5839 5839 5839 5838 5838 5838 5837 5836 5835 5835 5834 5834 5834 5833 5833
5856 5856 5856 5856 5857 5856 5855 5855 5854 5853 5852 5851 5850 5849 5848 5847 5845 5845 5844 5843 5842 5842 5841 5840 5839 5838 5837 5837 5837 5836 5836 5835 5835 5834 5834 5833 5833 5832 5831 5830 5830 5830 5829
5850 5851 5852 5852 5852 5852 5851 5850 5849 5848 5847 5846 5845 5844 5844 5843 5842 5841 5841 5840 5840 5839 5838 5837 5836 5835 5835 5834 5834 5833 5833 5832 5832 5831 5831 5831 5830 5829 5828 5827 5826 5827 5826
5845 5846 5847 5847 5847 5847 5846 5845 5844 5843 5843 5842 5841 5840 5839 5838 5838 5838 5837 5837 5836 5835 5834 5833 5833 5832 5832 5831 5831 5830 5830 5829 5828 5828 5828 5827 5827 5826 5825 5824 5824 5823 5823
5841 5841 5841 5841 5842 5842 5841 5840 5840 5839 5838 5838 5837 5836 5835 5834 5834 5834 5834 5833 5832 5832 5831 5830 5829 5829 5828 5828 5827 5827 5826 5826 5825 5825 5824 5824 5824 5823 5822 5821 5821 5820 5819
5836 5836 5837 5836 5836 5836 5835 5835 5835 5834 5834 5833 5832 5831 5830 5829 5829 5829 5829 5829 5828 5828 5827 5827 5826 5825 5825 5824 5824 5823 5822 5822 5821 5821 5821 5820 5820 5819 5819 5818 5817 5817 5816
5831 5831 5831 5830 5830 5830 5830 5830 5830 5829 5829 5828 5827 5826 5826 5825 5825 5825 5825 5825 5824 5824 5823 5823 5822 5822 5821 5820 5820 5819 5818 5817 5817 5816 5816 5816 5816 5815 5815 5814 5813 5813 5812
5825 5825 5825 5825 5825 5825 5825 5825 5825 5824 5824 5823 5822 5822 5821 5820 5820 5820 5820 5820 5820 5820 5820 5819 5819 5818 5817 5816 5816 5815 5814 5813 5812 5812 5812 5812 5812 5811 5810 5810 5809 5808 5808
5820 5820 5820 5820 5820 5820 5820 5820 5820 5820 5819 5818 5817 5817 5816 5815 5816 5816 5816 5816 5816 5816 5815 5815 5815 5814 5813 5812 5811 5811 5810 5809 5808 5808 5808 5808 5808 5807 5806 5805 5805 5804 5803
5815 5815 5815 5815 5815 5815 5815 5815 5815 5814 5814 5813 5813 5812 5811 5811 5811 5811 5811 5811 5811 5811 5811 5811 5810 5810 5809 5808 5807 5807 5806 5805 5805 5805 5804 5804 5803 5803 5802 5801 5800 5799 5799
5809 5810 5810 5809 5809 5810 5811 5811 5810 5810 5809 5808 5808 5807 5807 5806 5806 5806 5806 5806 5806 5806 5806 5806 5806 5806 5805 5804 5803 5803 5802 5802 5801 5801 5800 5800 5799 5799 5798 5797 5796 5795 5794
5803 5803 5804 5804 5805 5805 5806 5806 5806 5805 5805 5804 5803 5803 5802 5802 5802 5802 5802 5802 5802 5802 5801 5801 5801 5801 5800 5800 5799 5799 5798 5798 5797 5796 5796 5795 5795 5794 5793 5792 5791 5790 5789
5796 5796 5798 5798 5798 5800 5801 5801 5801 5801 5800 5800 5799 5799 5798 5798 5798 5798 5797 5797 5797 5797 5797 5797 5796 5796 5796 5795 5795 5795 5794 5793 5793 5792 5791 5790 5790 5789 5788 5787 5786 5785 5785
5789 5790 5791 5793 5794 5795 5795 5796 5795 5795 5795 5795 5795 5795 5794 5793 5793 5793 5793 5793 5793 5793 5793 5792 5792 5792 5791 5791 5791 5790 5789 5788 5788 5787 5786 5785 5784 5784 5783 5782 5781 5780 5779
5784 5785 5786 5787 5788 5789 5789 5790 5790 5790 5790 5790 5790 5790 5789 5789 5789 5789 5789 5789 5789 5789 5788 5788 5788 5787 5787 5786 5786 5785 5784 5783 5782 5782 5781 5780 5779 5778 5778 5777 5776 5775 5774
5778 5780 5780 5781 5782 5783 5783 5784 5784 5784 5784 5785 5785 5785 5785 5784 5784 5784 5784 5784 5784 5784 5784 5783 5783 5782 5782 5781 5780 5780 5779 5778 5778 5777 5776 5775 5774 5773 5772 5771 5770 5769 5768
5772 5773 5774 5775 5776 5777 5777 5778 5778 5778 5778 5779 5779 5779 5779 5779 5779 5779 5779 5779 5779 5778 5778 5778 5778 5777 5776 5775 5775 5774 5773 5773 5772 5771 5770 5769 5768 5767 5766 5765 5764 5763 5762
5765 5767 5768 5769 5770 5771 5771 5771 5771 5772 5772 5772 5773 5773 5773 5773 5773 5773 5773 5773 5773 5773 5773 5772 5772 5771 5771 5770 5769 5769 5768 5767 5766 5765 5764 5763 5762 5761 5760 5759 5758 5757 5755
5759 5760 5762 5763 5763 5764 5764 5765 5765 5765 5765 5766 5766 5767 5767 5767 5767 5767 5767 5767 5767 5767 5767 5766 5765 5765 5764 5764 5763 5762 5761 5760 5759 5758 5757 5756 5756 5755 5754 5752 5751 5750 5749
5752 5753 5754 5755 5756 5757 5757 5757 5758 5758 5758 5759 5759 5760 5760 5761 5761 5761 5761 5761 5761 5760 5760 5759 5759 5758 5758 5757 5756 5756 5755 5753 5753 5752 5751 5750 5749 5748 5747 5745 5744 5743 5742